SIA61Y BIKF-EGPH

Flight info

Callsign SIA61Y
Flight time 2h 7m
Altitude 35000
Route PIXUM2C PIXUM DCT PETUX DCT PODAR DCT ORTAV/N0467F350 DCT ODPEX DCT LAGAV N560 FOYLE DCT STIRA
Aircraft B77L/H-SDE1E2E3FGHIJ2J3J4J5M1RWXY/LB1D1

Departure

Time 2026-04-20 15:20
Airport Keflavik International Airport (BIKF)

Arrival

Time 2026-04-20 17:27
Airport Edinburgh Airport (EGPH)
Time Latitude Longitude Altitude Speed Heading
2026-04-20 14:51 63.99332 -22.62892 147 ft 0 kts 270°
2026-04-20 15:11 63.99332 -22.62886 147 ft 3 kts 270°
2026-04-20 15:11 63.99333 -22.62834 147 ft 2 kts 269°
2026-04-20 15:11 63.99336 -22.62780 147 ft 4 kts 237°
2026-04-20 15:11 63.99355 -22.62747 147 ft 4 kts 186°
2026-04-20 15:12 63.99360 -22.62746 147 ft 4 kts 180°
2026-04-20 15:12 63.99333 -22.62746 147 ft 4 kts 180°
2026-04-20 15:12 63.99306 -22.62746 147 ft 3 kts 179°
2026-04-20 15:12 63.99302 -22.62746 147 ft 0 kts 179°
2026-04-20 15:15 63.99291 -22.62745 147 ft 7 kts 176°
2026-04-20 15:15 63.99244 -22.62691 147 ft 8 kts 149°
2026-04-20 15:16 63.99192 -22.62673 147 ft 6 kts 171°
2026-04-20 15:16 63.99174 -22.62589 147 ft 7 kts 96°
2026-04-20 15:16 63.99173 -22.62463 147 ft 10 kts 90°
2026-04-20 15:16 63.99173 -22.62289 147 ft 11 kts 90°
2026-04-20 15:17 63.99173 -22.62107 147 ft 11 kts 89°
2026-04-20 15:17 63.99173 -22.61926 147 ft 11 kts 90°
2026-04-20 15:17 63.99173 -22.61744 150 ft 11 kts 90°
2026-04-20 15:17 63.99173 -22.61563 155 ft 11 kts 90°
2026-04-20 15:18 63.99173 -22.61382 159 ft 11 kts 90°
2026-04-20 15:18 63.99173 -22.61201 163 ft 11 kts 90°
2026-04-20 15:18 63.99173 -22.61020 167 ft 11 kts 90°
2026-04-20 15:18 63.99173 -22.60841 171 ft 11 kts 90°
2026-04-20 15:19 63.99174 -22.60660 178 ft 11 kts 90°
2026-04-20 15:19 63.99134 -22.60538 182 ft 12 kts 178°
2026-04-20 15:19 63.99020 -22.60538 181 ft 31 kts 180°
2026-04-20 15:19 63.98577 -22.60536 180 ft 101 kts 180°
2026-04-20 15:20 63.97661 -22.60529 204 ft 160 kts 176°
2026-04-20 15:20 63.96541 -22.60531 918 ft 160 kts 177°
2026-04-20 15:20 63.95406 -22.60392 1559 ft 172 kts 162°
2026-04-20 15:20 63.94385 -22.58590 1785 ft 209 kts 122°
2026-04-20 15:21 63.93659 -22.55708 2600 ft 207 kts 129°
2026-04-20 15:21 63.92726 -22.53247 3557 ft 209 kts 133°
2026-04-20 15:21 63.91669 -22.50667 3978 ft 239 kts 133°
2026-04-20 15:21 63.90501 -22.47840 4763 ft 250 kts 134°
2026-04-20 15:22 63.89296 -22.44941 5747 ft 254 kts 135°
2026-04-20 15:22 63.88069 -22.41990 6603 ft 260 kts 134°
2026-04-20 15:22 63.86824 -22.38989 7030 ft 261 kts 134°
2026-04-20 15:22 63.85564 -22.35954 7025 ft 265 kts 134°
2026-04-20 15:23 63.84301 -22.32915 6998 ft 264 kts 134°
2026-04-20 15:23 63.83041 -22.29889 7022 ft 263 kts 133°
2026-04-20 15:23 63.81788 -22.26880 7022 ft 264 kts 133°
2026-04-20 15:23 63.80526 -22.23852 7023 ft 264 kts 133°
2026-04-20 15:24 63.79277 -22.20857 7027 ft 265 kts 133°
2026-04-20 15:24 63.78011 -22.17825 7026 ft 266 kts 133°
2026-04-20 15:24 63.76742 -22.14787 7024 ft 266 kts 134°
2026-04-20 15:24 63.75472 -22.11753 7021 ft 266 kts 134°
2026-04-20 15:25 63.74200 -22.08723 7020 ft 265 kts 134°
2026-04-20 15:25 63.72932 -22.05709 7020 ft 264 kts 134°
2026-04-20 15:25 63.71726 -22.02579 7099 ft 264 kts 127°
2026-04-20 15:25 63.70679 -21.99161 7858 ft 267 kts 124°
2026-04-20 15:26 63.69645 -21.95660 8795 ft 270 kts 124°
2026-04-20 15:26 63.68951 -21.93322 9422 ft 272 kts 124°
2026-04-20 15:26 63.67881 -21.89745 10249 ft 278 kts 124°
2026-04-20 15:26 63.66783 -21.86109 10650 ft 280 kts 125°
2026-04-20 15:27 63.65311 -21.81275 10644 ft 283 kts 125°
2026-04-20 15:27 63.64197 -21.77639 10628 ft 281 kts 125°
2026-04-20 15:27 63.63086 -21.74032 10647 ft 279 kts 125°
2026-04-20 15:27 63.62337 -21.71606 10646 ft 280 kts 125°
2026-04-20 15:28 63.61343 -21.68385 10650 ft 280 kts 125°
2026-04-20 15:28 63.61110 -21.67631 10656 ft 282 kts 125°
2026-04-20 15:28 63.59950 -21.63883 10834 ft 304 kts 125°
2026-04-20 15:29 63.58681 -21.59791 11057 ft 333 kts 125°
2026-04-20 15:29 63.57313 -21.55386 11574 ft 351 kts 125°
2026-04-20 15:29 63.55898 -21.50833 12386 ft 360 kts 125°
2026-04-20 15:29 63.54457 -21.46207 12654 ft 365 kts 125°
2026-04-20 15:30 63.53001 -21.41535 12639 ft 364 kts 125°
2026-04-20 15:30 63.51556 -21.36917 12638 ft 360 kts 125°
2026-04-20 15:30 63.50115 -21.32321 12655 ft 362 kts 125°
2026-04-20 15:30 63.48658 -21.27703 13573 ft 365 kts 125°
2026-04-20 15:31 63.47183 -21.23039 14667 ft 369 kts 125°
2026-04-20 15:31 63.45689 -21.18321 15603 ft 375 kts 125°
2026-04-20 15:31 63.44166 -21.13518 16523 ft 381 kts 125°
2026-04-20 15:31 63.42640 -21.08717 17490 ft 385 kts 125°
2026-04-20 15:32 63.41069 -21.03787 18351 ft 393 kts 124°
2026-04-20 15:32 63.39474 -20.98780 19214 ft 398 kts 124°
2026-04-20 15:32 63.37860 -20.93720 20037 ft 402 kts 124°
2026-04-20 15:32 63.36224 -20.88616 20869 ft 406 kts 125°
2026-04-20 15:33 63.34772 -20.84169 21543 ft 411 kts 126°
2026-04-20 15:33 63.34576 -20.83581 21639 ft 412 kts 126°
2026-04-20 15:33 63.32833 -20.78471 22387 ft 417 kts 127°
2026-04-20 15:34 63.31047 -20.73324 23195 ft 421 kts 127°
2026-04-20 15:34 63.29244 -20.68153 24013 ft 425 kts 127°
2026-04-20 15:34 63.27419 -20.62920 24651 ft 431 kts 127°
2026-04-20 15:34 63.25570 -20.57614 25242 ft 437 kts 127°
2026-04-20 15:35 63.23724 -20.52314 25853 ft 441 kts 127°
2026-04-20 15:35 63.21844 -20.46917 26529 ft 444 kts 127°
2026-04-20 15:35 63.19940 -20.41460 27103 ft 450 kts 127°
2026-04-20 15:35 63.18015 -20.35957 27680 ft 455 kts 127°
2026-04-20 15:36 63.16066 -20.30396 28313 ft 458 kts 127°
2026-04-20 15:36 63.14101 -20.24804 28902 ft 462 kts 127°
2026-04-20 15:36 63.12114 -20.19161 29506 ft 466 kts 127°
2026-04-20 15:36 63.10112 -20.13490 30037 ft 471 kts 127°
2026-04-20 15:37 63.08085 -20.07766 30566 ft 475 kts 127°
2026-04-20 15:37 63.06040 -20.02005 31070 ft 477 kts 127°
2026-04-20 15:37 63.03999 -19.96273 31719 ft 475 kts 127°
2026-04-20 15:37 63.01963 -19.90566 32383 ft 472 kts 127°
2026-04-20 15:38 63.00277 -19.85854 32836 ft 473 kts 127°
2026-04-20 15:38 62.99632 -19.84055 32979 ft 474 kts 127°
2026-04-20 15:38 62.97588 -19.78354 33467 ft 475 kts 127°
2026-04-20 15:39 62.95569 -19.72738 34139 ft 471 kts 127°
2026-04-20 15:39 62.93547 -19.67140 34797 ft 468 kts 127°
2026-04-20 15:39 62.91524 -19.61532 35275 ft 468 kts 127°
2026-04-20 15:39 62.89504 -19.55948 35645 ft 469 kts 127°
2026-04-20 15:40 62.87453 -19.50296 35629 ft 474 kts 127°
2026-04-20 15:40 62.83355 -19.39061 35633 ft 468 kts 127°
2026-04-20 15:41 62.79293 -19.27971 35644 ft 466 kts 127°
2026-04-20 15:41 62.75228 -19.16920 35640 ft 467 kts 127°
2026-04-20 15:42 62.71505 -19.05459 35636 ft 465 kts 118°
2026-04-20 15:42 62.68237 -18.93295 35641 ft 465 kts 118°
2026-04-20 15:43 62.65286 -18.82384 35639 ft 465 kts 118°
2026-04-20 15:43 62.64720 -18.80309 35639 ft 465 kts 118°
2026-04-20 15:44 62.61396 -18.68195 35640 ft 466 kts 118°
2026-04-20 15:44 62.58053 -18.56111 35639 ft 467 kts 118°
2026-04-20 15:45 62.54697 -18.44059 35639 ft 467 kts 118°
2026-04-20 15:45 62.51331 -18.32028 35649 ft 467 kts 118°
2026-04-20 15:46 62.47977 -18.20103 35641 ft 467 kts 118°
2026-04-20 15:46 62.44595 -18.08139 35636 ft 466 kts 119°
2026-04-20 15:47 62.41201 -17.96198 35638 ft 466 kts 119°
2026-04-20 15:47 62.37796 -17.84283 35642 ft 465 kts 119°
2026-04-20 15:48 62.34804 -17.73861 35648 ft 465 kts 119°
2026-04-20 15:48 62.34153 -17.71601 35647 ft 466 kts 119°
2026-04-20 15:49 62.30737 -17.59773 35655 ft 466 kts 118°
2026-04-20 15:49 62.27325 -17.48020 35633 ft 467 kts 118°
2026-04-20 15:50 62.23877 -17.36207 35629 ft 467 kts 118°
2026-04-20 15:50 62.20422 -17.24431 35628 ft 467 kts 119°
2026-04-20 15:51 62.16956 -17.12677 35647 ft 467 kts 119°
2026-04-20 15:51 62.13475 -17.00933 35636 ft 467 kts 119°
2026-04-20 15:52 62.09990 -16.89236 35635 ft 467 kts 119°
2026-04-20 15:52 62.06494 -16.77566 35653 ft 467 kts 118°
2026-04-20 15:53 62.03489 -16.67576 35647 ft 467 kts 118°
2026-04-20 15:53 62.01037 -16.59458 35634 ft 467 kts 118°
2026-04-20 15:54 61.97532 -16.47903 35633 ft 467 kts 118°
2026-04-20 15:54 61.94005 -16.36338 35633 ft 467 kts 118°
2026-04-20 15:55 61.90465 -16.24787 35629 ft 466 kts 118°
2026-04-20 15:55 61.86917 -16.13269 35652 ft 466 kts 118°
2026-04-20 15:56 61.83356 -16.01764 35628 ft 466 kts 118°
2026-04-20 15:56 61.79793 -15.90313 35626 ft 466 kts 118°
2026-04-20 15:57 61.76225 -15.78903 35638 ft 465 kts 118°
2026-04-20 15:57 61.72647 -15.67517 35624 ft 465 kts 118°
2026-04-20 15:58 61.71416 -15.63609 35624 ft 465 kts 118°
2026-04-20 15:58 61.68782 -15.55278 35625 ft 465 kts 118°
2026-04-20 15:59 61.65212 -15.44030 35638 ft 465 kts 118°
2026-04-20 15:59 61.61610 -15.32739 35624 ft 465 kts 118°
2026-04-20 16:00 61.57996 -15.21463 35621 ft 465 kts 118°
2026-04-20 16:00 61.54380 -15.10237 35617 ft 464 kts 118°
2026-04-20 16:01 61.50755 -14.99028 35614 ft 464 kts 118°
2026-04-20 16:01 61.46997 -14.87989 35611 ft 467 kts 121°
2026-04-20 16:02 61.43031 -14.77236 35612 ft 467 kts 122°
2026-04-20 16:02 61.39044 -14.66501 35622 ft 467 kts 121°
2026-04-20 16:03 61.37755 -14.63012 35613 ft 467 kts 121°
2026-04-20 16:03 61.34833 -14.55081 35602 ft 467 kts 121°
2026-04-20 16:04 61.30879 -14.44347 35599 ft 466 kts 121°
2026-04-20 16:04 61.26928 -14.33658 35603 ft 466 kts 121°
2026-04-20 16:05 61.23004 -14.23094 35597 ft 465 kts 121°
2026-04-20 16:05 61.19039 -14.12473 35600 ft 465 kts 121°
2026-04-20 16:06 61.15065 -14.01877 35626 ft 466 kts 121°
2026-04-20 16:06 61.11079 -13.91300 35596 ft 466 kts 121°
2026-04-20 16:07 61.07085 -13.80749 35591 ft 466 kts 121°
2026-04-20 16:07 61.03085 -13.70231 35593 ft 465 kts 121°
2026-04-20 16:08 61.01844 -13.66977 35593 ft 465 kts 121°
2026-04-20 16:08 60.98897 -13.59269 35584 ft 465 kts 121°
2026-04-20 16:09 60.95622 -13.50733 35585 ft 465 kts 121°
2026-04-20 16:09 60.91599 -13.40291 35585 ft 465 kts 122°
2026-04-20 16:10 60.87570 -13.29880 35577 ft 466 kts 122°
2026-04-20 16:10 60.83529 -13.19485 35577 ft 466 kts 122°
2026-04-20 16:11 60.79479 -13.09115 35600 ft 466 kts 122°
2026-04-20 16:11 60.75410 -12.98742 35579 ft 467 kts 122°
2026-04-20 16:12 60.71326 -12.88378 35585 ft 467 kts 122°
2026-04-20 16:12 60.67265 -12.78116 35568 ft 468 kts 122°
2026-04-20 16:13 60.66033 -12.75012 35566 ft 468 kts 122°
2026-04-20 16:13 60.64371 -12.70832 35563 ft 468 kts 122°
2026-04-20 16:14 60.60258 -12.60520 35557 ft 468 kts 122°
2026-04-20 16:14 60.56838 -12.51982 35552 ft 468 kts 122°
2026-04-20 16:15 60.52715 -12.41730 35555 ft 468 kts 122°
2026-04-20 16:15 60.48588 -12.31513 35547 ft 468 kts 122°
2026-04-20 16:16 60.44454 -12.21322 35581 ft 468 kts 123°
2026-04-20 16:16 60.40295 -12.11117 35544 ft 469 kts 123°
2026-04-20 16:17 60.36134 -12.00951 35534 ft 469 kts 123°
2026-04-20 16:17 60.31996 -11.90886 35531 ft 469 kts 123°
2026-04-20 16:18 60.30115 -11.86326 35536 ft 469 kts 123°
2026-04-20 16:18 60.27689 -11.80458 35528 ft 469 kts 123°
2026-04-20 16:19 60.23503 -11.70367 35547 ft 469 kts 123°
2026-04-20 16:19 60.19306 -11.60292 35530 ft 469 kts 123°
2026-04-20 16:20 60.15102 -11.50245 35518 ft 469 kts 123°
2026-04-20 16:20 60.10902 -11.40255 35512 ft 468 kts 123°
2026-04-20 16:21 60.06731 -11.30373 35519 ft 468 kts 123°
2026-04-20 16:21 60.02522 -11.20444 35506 ft 467 kts 123°
2026-04-20 16:22 59.98315 -11.10562 35532 ft 466 kts 124°
2026-04-20 16:22 59.94102 -11.00707 35502 ft 465 kts 124°
2026-04-20 16:23 59.92296 -10.96497 35497 ft 465 kts 124°
2026-04-20 16:23 59.89477 -10.89940 35497 ft 464 kts 124°
2026-04-20 16:24 59.85269 -10.80185 35496 ft 464 kts 124°
2026-04-20 16:24 59.81057 -10.70463 35490 ft 464 kts 124°
2026-04-20 16:25 59.76833 -10.60752 35493 ft 464 kts 124°
2026-04-20 16:25 59.72607 -10.51077 35527 ft 465 kts 124°
2026-04-20 16:26 59.68384 -10.41451 35483 ft 466 kts 124°
2026-04-20 16:26 59.64124 -10.31782 35475 ft 466 kts 124°
2026-04-20 16:27 59.59862 -10.22147 35476 ft 465 kts 125°
2026-04-20 16:27 59.55593 -10.12531 35473 ft 465 kts 125°
2026-04-20 16:28 59.53830 -10.08575 35471 ft 465 kts 125°
2026-04-20 16:28 59.51329 -10.02273 35468 ft 458 kts 117°
2026-04-20 16:29 59.48378 -9.91301 35473 ft 450 kts 106°
2026-04-20 16:29 59.46330 -9.79728 35470 ft 448 kts 103°
2026-04-20 16:30 59.44290 -9.68126 35475 ft 450 kts 104°
2026-04-20 16:30 59.42134 -9.56536 35464 ft 454 kts 108°
2026-04-20 16:31 59.39020 -9.45602 35465 ft 463 kts 118°
2026-04-20 16:31 59.34992 -9.35623 35457 ft 468 kts 124°
2026-04-20 16:32 59.30772 -9.25882 35447 ft 469 kts 124°
2026-04-20 16:32 59.26584 -9.16212 35462 ft 469 kts 124°
2026-04-20 16:33 59.24917 -9.12349 35437 ft 469 kts 124°
2026-04-20 16:33 59.22239 -9.06141 35446 ft 469 kts 124°
2026-04-20 16:34 59.19148 -8.98981 35456 ft 469 kts 125°
2026-04-20 16:34 59.14932 -8.89243 35435 ft 470 kts 125°
2026-04-20 16:35 59.10748 -8.79619 35434 ft 470 kts 125°
2026-04-20 16:35 59.06486 -8.69863 35424 ft 470 kts 125°
2026-04-20 16:36 59.02243 -8.60191 35445 ft 471 kts 125°
2026-04-20 16:36 58.97985 -8.50523 35422 ft 472 kts 126°
2026-04-20 16:37 58.93711 -8.40862 35422 ft 472 kts 126°
2026-04-20 16:37 58.89428 -8.31219 35417 ft 472 kts 126°
2026-04-20 16:38 58.87815 -8.27598 35415 ft 472 kts 126°
2026-04-20 16:38 58.84773 -8.20786 35426 ft 473 kts 126°
2026-04-20 16:39 58.80472 -8.11187 35416 ft 472 kts 126°
2026-04-20 16:39 58.76169 -8.01622 35416 ft 472 kts 126°
2026-04-20 16:40 58.71860 -7.92085 35404 ft 471 kts 126°
2026-04-20 16:40 58.67548 -7.82578 35404 ft 470 kts 126°
2026-04-20 16:41 58.63263 -7.73171 35401 ft 470 kts 126°
2026-04-20 16:41 58.58924 -7.63681 35401 ft 470 kts 126°
2026-04-20 16:42 58.54635 -7.54340 35396 ft 470 kts 127°
2026-04-20 16:42 58.50310 -7.44958 35401 ft 470 kts 127°
2026-04-20 16:43 58.48743 -7.41569 35398 ft 470 kts 127°
2026-04-20 16:43 58.45537 -7.34651 35389 ft 470 kts 127°
2026-04-20 16:44 58.41201 -7.25326 35387 ft 469 kts 127°
2026-04-20 16:44 58.36862 -7.16032 35384 ft 469 kts 127°
2026-04-20 16:45 58.32513 -7.06753 35382 ft 469 kts 127°
2026-04-20 16:45 58.28162 -6.97505 35398 ft 469 kts 127°
2026-04-20 16:46 58.23802 -6.88275 35387 ft 470 kts 127°
2026-04-20 16:46 58.19420 -6.79039 35380 ft 470 kts 127°
2026-04-20 16:47 58.15066 -6.69897 35371 ft 471 kts 128°
2026-04-20 16:47 58.10664 -6.60690 35372 ft 471 kts 128°
2026-04-20 16:48 58.09151 -6.57535 35377 ft 471 kts 128°
2026-04-20 16:48 58.06135 -6.51257 35390 ft 471 kts 128°
2026-04-20 16:49 58.01720 -6.42098 35394 ft 472 kts 128°
2026-04-20 16:49 57.97298 -6.32957 35390 ft 472 kts 128°
2026-04-20 16:50 57.92864 -6.23831 35380 ft 472 kts 128°
2026-04-20 16:50 57.88417 -6.14714 35352 ft 473 kts 128°
2026-04-20 16:51 57.83954 -6.05599 35363 ft 473 kts 129°
2026-04-20 16:51 57.79494 -5.96527 35353 ft 473 kts 129°
2026-04-20 16:52 57.75032 -5.87486 35354 ft 473 kts 129°
2026-04-20 16:52 57.70559 -5.78457 35349 ft 473 kts 129°
2026-04-20 16:53 57.69109 -5.75539 35350 ft 473 kts 129°
2026-04-20 16:53 57.65932 -5.69157 35346 ft 472 kts 129°
2026-04-20 16:54 57.61442 -5.60167 35346 ft 472 kts 129°
2026-04-20 16:54 57.56945 -5.51197 35340 ft 473 kts 130°
2026-04-20 16:55 57.52447 -5.42258 35353 ft 472 kts 130°
2026-04-20 16:55 57.47941 -5.33338 35353 ft 473 kts 130°
2026-04-20 16:56 57.43429 -5.24444 35351 ft 473 kts 130°
2026-04-20 16:56 57.38911 -5.15571 35350 ft 473 kts 130°
2026-04-20 16:57 57.34416 -5.06776 35339 ft 473 kts 130°
2026-04-20 16:57 57.29886 -4.97947 35350 ft 473 kts 130°
2026-04-20 16:58 57.28479 -4.95212 35350 ft 472 kts 130°
2026-04-20 16:58 57.25276 -4.88995 34932 ft 472 kts 131°
2026-04-20 16:59 57.23018 -4.84623 34452 ft 469 kts 131°
2026-04-20 16:59 57.20778 -4.80297 33911 ft 464 kts 131°
2026-04-20 16:59 57.18551 -4.76004 33377 ft 464 kts 131°
2026-04-20 16:59 57.16314 -4.71695 32940 ft 459 kts 131°
2026-04-20 17:00 57.12149 -4.63715 31967 ft 413 kts 131°
2026-04-20 17:00 57.10206 -4.59997 31496 ft 393 kts 131°
2026-04-20 17:00 57.08347 -4.56446 31056 ft 376 kts 131°
2026-04-20 17:01 57.06570 -4.53051 30636 ft 362 kts 131°
2026-04-20 17:01 57.04847 -4.49761 30227 ft 355 kts 131°
2026-04-20 17:01 57.03138 -4.46499 29806 ft 356 kts 131°
2026-04-20 17:01 57.01399 -4.43183 29414 ft 367 kts 131°
2026-04-20 17:02 57.00210 -4.40919 29125 ft 375 kts 132°
2026-04-20 17:02 56.98374 -4.37432 28671 ft 385 kts 132°
2026-04-20 17:02 56.96510 -4.33901 28212 ft 381 kts 132°
2026-04-20 17:02 56.94130 -4.29408 27541 ft 360 kts 133°
2026-04-20 17:03 56.93125 -4.27514 27293 ft 349 kts 133°
2026-04-20 17:03 56.92832 -4.26963 27223 ft 346 kts 133°
2026-04-20 17:03 56.91187 -4.23920 26826 ft 326 kts 137°
2026-04-20 17:04 56.89305 -4.21870 26484 ft 316 kts 159°
2026-04-20 17:04 56.87179 -4.20995 26160 ft 315 kts 173°
2026-04-20 17:04 56.84960 -4.21164 25850 ft 326 kts 184°
2026-04-20 17:04 56.82647 -4.21754 25470 ft 344 kts 185°
2026-04-20 17:05 56.80225 -4.22418 25085 ft 360 kts 185°
2026-04-20 17:05 56.77731 -4.23089 24669 ft 360 kts 185°
2026-04-20 17:05 56.75297 -4.23715 24254 ft 345 kts 185°
2026-04-20 17:05 56.72978 -4.24288 23860 ft 327 kts 185°
2026-04-20 17:06 56.70781 -4.24821 23432 ft 311 kts 184°
2026-04-20 17:06 56.68680 -4.25326 23092 ft 299 kts 184°
2026-04-20 17:06 56.66638 -4.25818 22770 ft 294 kts 184°
2026-04-20 17:06 56.64585 -4.26308 22444 ft 304 kts 184°
2026-04-20 17:07 56.62419 -4.26823 22088 ft 324 kts 185°
2026-04-20 17:07 56.60117 -4.27374 21724 ft 342 kts 185°
2026-04-20 17:07 56.57757 -4.27943 21298 ft 340 kts 185°
2026-04-20 17:07 56.55460 -4.28501 20885 ft 325 kts 185°
2026-04-20 17:08 56.53559 -4.28963 20565 ft 310 kts 185°
2026-04-20 17:08 56.53246 -4.29039 20511 ft 307 kts 185°
2026-04-20 17:08 56.51170 -4.29541 20164 ft 296 kts 184°
2026-04-20 17:09 56.49139 -4.30026 19839 ft 293 kts 185°
2026-04-20 17:09 56.47093 -4.30511 19510 ft 302 kts 185°
2026-04-20 17:09 56.44931 -4.31019 19173 ft 325 kts 185°
2026-04-20 17:09 56.42634 -4.31557 18773 ft 334 kts 185°
2026-04-20 17:10 56.40357 -4.32098 18321 ft 323 kts 185°
2026-04-20 17:10 56.38181 -4.32616 17908 ft 307 kts 185°
2026-04-20 17:10 56.36128 -4.33102 17570 ft 290 kts 185°
2026-04-20 17:10 56.34172 -4.33564 17324 ft 278 kts 185°
2026-04-20 17:11 56.32263 -4.34010 17057 ft 277 kts 185°
2026-04-20 17:11 56.30308 -4.34463 16737 ft 294 kts 185°
2026-04-20 17:11 56.28181 -4.34955 16335 ft 321 kts 185°
2026-04-20 17:11 56.25962 -4.35474 15850 ft 319 kts 185°
2026-04-20 17:12 56.23826 -4.35980 15586 ft 299 kts 185°
2026-04-20 17:12 56.21834 -4.36452 15336 ft 278 kts 184°
2026-04-20 17:12 56.19977 -4.36887 15084 ft 262 kts 185°
2026-04-20 17:12 56.18139 -4.37285 14852 ft 271 kts 180°
2026-04-20 17:13 56.16571 -4.36929 14247 ft 277 kts 155°
2026-04-20 17:13 56.16177 -4.36612 14093 ft 276 kts 149°
2026-04-20 17:13 56.14783 -4.34353 13114 ft 278 kts 120°
2026-04-20 17:14 56.14189 -4.31094 12390 ft 274 kts 96°
2026-04-20 17:14 56.14106 -4.27723 11883 ft 269 kts 92°
2026-04-20 17:14 56.14059 -4.24386 11353 ft 266 kts 93°
2026-04-20 17:14 56.14016 -4.21096 10847 ft 262 kts 92°
2026-04-20 17:15 56.13973 -4.17842 10350 ft 261 kts 92°
2026-04-20 17:15 56.13928 -4.14602 9817 ft 259 kts 92°
2026-04-20 17:15 56.13881 -4.11379 9277 ft 257 kts 93°
2026-04-20 17:15 56.13644 -4.08277 8707 ft 251 kts 112°
2026-04-20 17:16 56.12642 -4.05729 8191 ft 254 kts 138°
2026-04-20 17:16 56.11231 -4.03756 7698 ft 257 kts 144°
2026-04-20 17:16 56.09785 -4.01932 7204 ft 250 kts 144°
2026-04-20 17:16 56.08393 -4.00196 6681 ft 243 kts 144°
2026-04-20 17:17 56.07002 -3.98472 6183 ft 238 kts 144°
2026-04-20 17:17 56.05644 -3.96826 6019 ft 241 kts 144°
2026-04-20 17:17 56.04257 -3.95157 5994 ft 240 kts 144°
2026-04-20 17:17 56.02886 -3.93518 5877 ft 237 kts 144°
2026-04-20 17:18 56.01519 -3.91902 5411 ft 234 kts 145°
2026-04-20 17:18 56.00198 -3.90348 5043 ft 222 kts 144°
2026-04-20 17:18 55.98913 -3.88856 4771 ft 222 kts 145°
2026-04-20 17:18 55.97607 -3.87336 4515 ft 223 kts 144°
2026-04-20 17:19 55.96303 -3.85849 4308 ft 219 kts 145°
2026-04-20 17:19 55.95046 -3.84430 4118 ft 209 kts 144°
2026-04-20 17:19 55.93814 -3.83092 4065 ft 206 kts 145°
2026-04-20 17:19 55.92589 -3.81774 4006 ft 204 kts 145°
2026-04-20 17:20 55.91397 -3.80494 3982 ft 198 kts 145°
2026-04-20 17:20 55.90225 -3.79236 3971 ft 196 kts 145°
2026-04-20 17:20 55.89055 -3.77974 4016 ft 199 kts 145°
2026-04-20 17:20 55.87861 -3.76666 4025 ft 204 kts 145°
2026-04-20 17:21 55.86659 -3.75350 3977 ft 200 kts 145°
2026-04-20 17:21 55.85499 -3.74096 3983 ft 196 kts 145°
2026-04-20 17:21 55.84404 -3.72712 3976 ft 191 kts 128°
2026-04-20 17:21 55.83907 -3.70533 3921 ft 188 kts 91°
2026-04-20 17:22 55.84283 -3.68418 3652 ft 182 kts 57°
2026-04-20 17:22 55.84996 -3.66614 3402 ft 176 kts 60°
2026-04-20 17:22 55.85630 -3.64791 3240 ft 169 kts 61°
2026-04-20 17:22 55.86248 -3.62982 3135 ft 173 kts 61°
2026-04-20 17:23 55.86877 -3.61138 3082 ft 177 kts 61°
2026-04-20 17:23 55.87525 -3.59233 2838 ft 179 kts 60°
2026-04-20 17:23 55.88149 -3.57407 2622 ft 165 kts 61°
2026-04-20 17:23 55.88718 -3.55738 2383 ft 152 kts 62°
2026-04-20 17:24 55.89250 -3.54173 2173 ft 144 kts 62°
2026-04-20 17:24 55.89749 -3.52705 1997 ft 132 kts 62°
2026-04-20 17:24 55.90221 -3.51315 1827 ft 133 kts 62°
2026-04-20 17:24 55.90700 -3.49894 1624 ft 135 kts 61°
2026-04-20 17:25 55.91190 -3.48463 1420 ft 134 kts 61°
2026-04-20 17:25 55.91678 -3.47035 1241 ft 135 kts 61°
2026-04-20 17:25 55.92153 -3.45632 1038 ft 130 kts 60°
2026-04-20 17:25 55.92615 -3.44262 841 ft 128 kts 60°
2026-04-20 17:26 55.93078 -3.42893 680 ft 132 kts 60°
2026-04-20 17:26 55.93562 -3.41479 504 ft 135 kts 59°
2026-04-20 17:26 55.94029 -3.40092 326 ft 127 kts 60°
2026-04-20 17:26 55.94492 -3.38748 167 ft 129 kts 60°
2026-04-20 17:27 55.94933 -3.37452 114 ft 107 kts 59°
2026-04-20 17:27 55.95220 -3.36600 116 ft 54 kts 59°
2026-04-20 17:27 55.95345 -3.36232 111 ft 21 kts 59°
2026-04-20 17:27 55.95409 -3.36042 112 ft 24 kts 59°
2026-04-20 17:28 55.95488 -3.35811 113 ft 15 kts 59°
2026-04-20 17:28 55.95561 -3.35596 113 ft 13 kts 59°
2026-04-20 17:28 55.95566 -3.35549 114 ft 2 kts 94°
2026-04-20 17:28 55.95522 -3.35465 116 ft 9 kts 147°
2026-04-20 17:29 55.95512 -3.35454 120 ft 4 kts 147°
2026-04-20 17:29 55.95451 -3.35402 117 ft 9 kts 181°
2026-04-20 17:29 55.95408 -3.35473 118 ft 9 kts 236°
2026-04-20 17:29 55.95372 -3.35577 117 ft 11 kts 239°
2026-04-20 17:30 55.95331 -3.35696 117 ft 12 kts 239°
2026-04-20 17:30 55.95320 -3.35728 116 ft 0 kts 239°
2026-04-20 17:30 55.95317 -3.35737 119 ft 3 kts 239°
2026-04-20 17:31 55.95307 -3.35767 121 ft 5 kts 239°
2026-04-20 17:31 55.95286 -3.35831 116 ft 7 kts 239°
2026-04-20 17:31 55.95251 -3.35935 117 ft 11 kts 238°
2026-04-20 17:31 55.95184 -3.35965 117 ft 11 kts 151°
2026-04-20 17:32 55.95124 -3.35876 116 ft 12 kts 123°
2026-04-20 17:32 55.95076 -3.35758 118 ft 12 kts 126°
2026-04-20 17:32 55.95035 -3.35630 118 ft 12 kts 118°
2026-04-20 17:32 55.94989 -3.35477 117 ft 17 kts 118°
2026-04-20 17:33 55.94931 -3.35287 116 ft 17 kts 118°
2026-04-20 17:33 55.94873 -3.35097 119 ft 17 kts 118°
2026-04-20 17:33 55.94829 -3.34946 117 ft 8 kts 104°
2026-04-20 17:33 55.94867 -3.34875 118 ft 9 kts 27°
2026-04-20 17:34 55.94916 -3.34826 117 ft 7 kts 41°
2026-04-20 17:34 55.94917 -3.34745 118 ft 6 kts 81°
2026-04-20 17:34 55.94938 -3.34701 117 ft 4 kts 42°
2026-04-20 17:34 55.94957 -3.34679 117 ft 1 kts 30°
2026-04-20 17:35 55.94964 -3.34671 117 ft 0 kts 30°
2026-04-20 17:35 55.94966 -3.34669 116 ft 0 kts 30°